Zurück zum Katalog

PEGASUS DEB

AktivPO
NORAD 24581·DEBRIS·🇺🇸 United States

Gestartet May 19, 1994 von Vandenberg Space Force Base

Loading…

Nächste Überflüge (nächste 24 Stunden)

TLE

AktuellSource: Space-Track

Epoche: Sep 14, 2026, 14:40 UTC

1 24581U 94029YH  26257.61136164  .00001781  00000-0  63929-3 0  9993
2 24581  81.5412 297.8993 0728689 162.8630 356.5030 13.40594592447881

Verfolge PEGASUS DEB in Echtzeit mit AllMySat

Download on the App Store